sat.trackr.live / text

‹ back to catalog

STARLINK-5606

NORAD 55767 · 2023-028AC

PAYLOAD ACTIVE UNKNOWN

§ Identity

Operator
Country
US
Launch date
2023-03-03
Launch site
AFWTR
Launch vehicle
Mass (kg)
RCS (m²)

Purposes: comms

External: N2YO · Heavens-Above · Gunter

§ Orbital elements

Epoch: 2026-05-25T02:19:40.895040Z

Period
96.11 min
Inclination
69.9998°
Eccentricity
0.0002819
Mean motion
14.98342531 rev/d
Perigee alt
570.1 km
Apogee alt
574.0 km
Semi-major
6,950.2 km
B*
1.1786e-4
RAAN
31.9919°
Arg perigee
272.2658°
Mean anomaly
87.8179°
Rev number
17,795

§ Raw data

STARLINK-56061 55767U 23028AC  26145.09700110  .00001314  00000+0  11786-3 0  99952 55767  69.9998  31.9919 0002819 272.2658  87.8179 14.98342531177955

JSON: /api/v1/satellites/55767 · /tle

For live sub-satellite position, see the globe view (requires WebGL).

§ Visibility from observer

Set your observer location to see the next 7 days of passes ≥ 10°. The values pass through the URL so the page stays shareable.

No JS? Fill the form by hand. The geolocation button needs JavaScript.